Regional Weather Roundup
Issued by NWS

Home | Current Version | Previous Version | Text Only | Print | Product List | Glossary On
Versions: 1 2 3 4 5 6 7 8 9 10 11 12 13 14 15 16 17 18 19 20 21 22 23 24 25 26 27 28 29 30 31 32 33 34 35 36 37 38 39 40 41 42 43 44 45 46 47 48 49 50
000
ASPQ40 PGUM 310912
RWRPQ
WEATHER ROUNDUP FOR THE MARIANAS AND MICRONESIA
NATIONAL WEATHER SERVICE TIYAN GU
700 PM CHST SUN AUG 31 2014

GUZ001>004-311000-
MARIANA ISLANDS-

CITY           SKY/WX    TMP DP  RH WIND       PRES   REMARKS
GUAM AIRPORT   PTCLDY    82  75  78 CALM      29.77R
ANDERSEN AFB   CLEAR     81  75  83 S5        29.77R
ROTA AIRPORT   MOCLDY    81  77  89 SE3       29.76R
TINIAN AP      MOCLDY    79  75  89 E5        29.74R
SAIPAN AP      CLEAR     81  75  83 E8        29.76R

$$

PMZ161-311000-
REPUBLIC OF PALAU-

CITY           SKY/WX    TMP DP  RH WIND       PRES   REMARKS
KOROR AP       LGT RAIN  77  77 100 SW14G29   29.75R
KOROR WSO      LGT RAIN  77  73  88 W18       29.75R

$$

PMZ171>174-311000-
FEDERATED STATES OF MICRONESIA-

CITY           SKY/WX    TMP DP  RH WIND       PRES   REMARKS
YAP AIRPORT    CLOUDY    82  77  83 S8        29.73R HX  91
CHUUK AP       LGT RAIN  79  79 100 SW9       29.76R
POHNPEI AP     MOCLDY    81  77  89 E3        29.77R
POHNPEI WSO    CLOUDY    81  77  89 E5        29.82R
KOSRAE AP      NOT AVBL

$$

PMZ181-311000-
REPUBLIC OF THE MARSHALL ISLANDS-

CITY           SKY/WX    TMP DP  RH WIND       PRES   REMARKS
KWAJALEIN AP   PTCLDY    84  73  70 N7        29.81R HX  91
MAJURO AP      NOT AVBL
MAJURO WSO     PTCLDY    84  75  74 CALM      29.79R HX  92

$$



USA.gov is the U.S. government's official web portal to all federal, state and local government web resources and services.